Current Version              Previous Version:    01  02  03  04  05  06  07  08  09  10  11  12  13  14  15  16  17  18  19  20  21  22  23  24  25  26  27  28  29  30  
   31  32  33  34  35  36  37  38  39  40  41  42  43  44  45  46  47  48  49  50  51  52  53  54  55  56  57  58  59  60  

[Printable]
386
ASUS44 KFWD 231010
RWRTX
NORTH TEXAS HOURLY WEATHER ROUNDUP
NATIONAL WEATHER SERVICE FORT WORTH TX
400 AM CST SUN NOV 23 2014

NOTE: "FAIR" INDICATES FEW OR NO CLOUDS BELOW 12,000 FEET WITH NO
SIGNIFICANT WEATHER AND/OR OBSTRUCTIONS TO VISIBILITY.

TXZ118-119-231100-
DALLAS/FORT WORTH METROPLEX

CITY           SKY/WX    TMP DP  RH WIND       PRES   REMARKS
DFW AIRPORT    CLOUDY    51  51 100 SW6       29.61F
DALLAS LOVE    CLOUDY    58  57  97 S3        29.63R FOG
FTW MEACHAM    MOCLDY    56  53  90 S3        29.61F
DAL-EXECUTIVE  FOG       59  56  89 S3        29.63R VSB 3/4
FTW-ALLIANCE   CLOUDY    55  53  93 CALM      29.61F
FTW-SPINKS     MOCLDY    53  52  96 S5        29.65S FOG
ARLINGTON      CLOUDY    56  53  90 S3        29.63S
GRAND PRAIRIE  CLOUDY    55  55 100 SW5       29.64S
ADDISON        CLOUDY    58  58 100 SW3       29.64S FOG
MESQUITE       CLOUDY    56  55  98 CALM      29.63R
LANCASTER      CLOUDY    55  54  94 S3        29.64S FOG
$$

TXZ091>094-102>105-117-120-121-131>134-231100-
NORTH CENTRAL TEXAS

CITY           SKY/WX    TMP DP  RH WIND       PRES   REMARKS
SHRMAN/DENISON CLOUDY    58  58 100 S6        29.62F
GAINESVILLE    CLOUDY    52  52  99 S6        29.64S FOG
BOWIE          CLOUDY    51  51  99 SE5       29.59F FOG
BRIDGEPORT     PTCLDY    50  50 100 CALM      29.63F
DECATUR        MOCLDY    54  53  95 S6        29.61F
DENTON         CLOUDY    52  52 100 SW3       29.61F
MCKINNEY       CLOUDY    57  57 100 S3        29.62R FOG
GREENVILLE     CLOUDY    59  55  88 CALM      29.63S
ROCKWALL       CLOUDY    57  57 100 S3        29.60F FOG
TERRELL        FOG       58  57  97 NW5       29.62F VSB 3/4
WAXAHACHIE     FOG       55  55 100 SW5       29.65S VSB 1/2
CLEBURNE       MOCLDY    54  54 100 SW5       29.65F
GRANBURY       CLEAR     54  52  92 CALM      29.63F
$$

TXZ083>090-098>101-113>116-127>130-139>142-154-155-231100-
WESTERN NORTH TEXAS

CITY           SKY/WX    TMP DP  RH WIND       PRES   REMARKS
WICHITA FALLS  FOG       49  49 100 S8        29.56F VSB 1/4
WF-KICKAPOO    FOG       49  49 100 S9        29.58S VSB 1/2
VERNON         PTCLDY    52  50  93 S13       29.51F
ABILENE        CLEAR     52  51  97 SW9       29.61F
ABILENE-DYESS  CLEAR     52  48  87 S8        29.59F
BRECKENRIDGE   CLEAR     53  51  95 S8        29.59S
GRAHAM         CLEAR     51  51 100 SE3       29.58F
MINERAL WELLS  FOG      N/A N/A N/A SE5       29.60F VSB 1/2
STEPHENVILLE   CLEAR     52  50  93 S3        29.64F
COMANCHE       CLEAR     54  54 100 SW7       29.62F
BROWNWOOD      PTCLDY    50  50 100 SE6       29.64F
COLEMAN        CLEAR     52  52 100 SW7       29.64F
BRADY          CLEAR     52  50  93 S6        29.65F
$$

TXZ143>147-156>162-174-175-231100-
CENTRAL TEXAS

CITY           SKY/WX    TMP DP  RH WIND       PRES   REMARKS
WACO           CLOUDY    56  55  97 W3        29.66S
WACO-MCGREGOR  CLOUDY    55  52  88 SW3       29.67R
HILLSBORO      CLOUDY    56  54  92 SW3       29.65S FOG
CORSICANA      CLOUDY    59  57  93 NW7       29.65R
MEXIA          FOG       59  58  98 W6        29.64S VSB 1
HEARNE         CLOUDY    58  58  97 SW6       29.66S
CAMERON        MOCLDY    59  58  97 SW3       29.67R
TEMPLE         MOCLDY    55  50  82 W5        29.66R
KILLEEN        CLOUDY    55  54  95 SW5       29.66S
KILLEEN-SKYLRK MOCLDY    55  50  82 SW6       29.65S
FORT HOOD      MOCLDY    57  54  89 SW5       29.66R
GATESVILLE     PTCLDY    54  54 100 CALM      29.68S
HAMILTON       CLEAR     52  52 100 S8        29.65F
LAMPASAS       PTCLDY    55  55  97 SW5       29.65F
$$

TXZ095>097-106>112-122>126-135>138-148>153-164>167-231100-
EAST TEXAS

CITY           SKY/WX    TMP DP  RH WIND       PRES   REMARKS
PARIS          CLOUDY    59  57  94 S6        29.63F
SULPHUR SPRNGS FOG       56  56  99 CALM      29.65R VSB 1/2
MOUNT PLEASANT CLOUDY    61  60  97 CALM      29.65F
MINEOLA        CLOUDY    61  61 100 CALM      29.61F
TYLER          LGT RAIN  61  58  90 N5        29.59F
LONGVIEW       CLOUDY    61  58  90 SE14      29.58F
MARSHALL       CLOUDY    58  56  93 SE5       29.64F
ATHENS         CLOUDY    59  57  94 CALM      29.60R
PALESTINE      CLOUDY    62  61  97 S7        29.61R
JACKSONVILLE   DRIZZLE   62  61  96 SE10G16   29.61F
HENDERSON      DRIZZLE   60  60 100 SE12      29.61F
NACOGDOCHES    CLOUDY    63  61  94 SE12      29.63F
LUFKIN         LGT RAIN  66  62  87 E12       29.60F
$$

SUPPLEMENTAL OBSERVATIONS (CENTRAL)

CITY           SKY/WX    TMP DP  RH WIND       PRES   REMARKS
CADDO GRASSLND   N/A     57  54  88 S5          N/A
PAT MAYSE LAKE   N/A     59  57  94 E6          N/A
MCGREGOR         N/A     55  52  88 W2          N/A
$$

SUPPLEMENTAL OBSERVATIONS (WEST)

CITY           SKY/WX    TMP DP  RH WIND       PRES   REMARKS
MILLERS CREEK    N/A     52  48  87 SW10        N/A
LBJ GRASSLAND    N/A     54  48  82 SE6         N/A
HAMBY            N/A     52  48  87 SW10        N/A
COLORADO BEND    N/A     54  50  87 SW9         N/A
$$

SUPPLEMENTAL OBSERVATIONS (EAST)

CITY           SKY/WX    TMP DP  RH WIND       PRES   REMARKS
CLARKSVILLE      N/A     61  59  94 SE1         N/A
TEXARKANA        N/A     61  57  88 SE10G21     N/A
LINDEN           N/A     61  57  88 S3G17       N/A
GILMER           N/A     61  57  88 E1G12       N/A
HENDERSON        N/A     61  57  88 SE9         N/A
N SABINE NF      N/A    N/A N/A N/A MISG        N/A
S SABINE NF      N/A    N/A N/A N/A SE2         N/A
$$

SUPPLEMENTAL OBSERVATIONS ARE A COLLECTION OF AUTOMATED INSTRUMENTS
THAT ARE MAINTAINED BY A VARIETY OF FEDERAL AND STATE AGENCIES.
CERTAIN ELEMENTS...SUCH AS HUMIDITY VALUES AND SUSTAINED WIND
SPEEDS...MAY BE APPROXIMATED.